Regional Weather Roundup
Issued by NWS

Home | Current Version | Previous Version | Graphics & Text | Print | Product List | Glossary Off
Versions: 1 2 3 4 5 6 7 8 9 10 11 12 13 14 15 16 17 18 19 20 21 22 23 24 25 26 27 28 29 30 31 32 33 34 35 36 37 38 39 40 41 42 43 44 45 46 47 48 49 50

620
ASUS43 KTOP 200308
RWRKS

WEATHER ROUNDUP FOR KANSAS
NATIONAL WEATHER SERVICE GOODLAND KS
1000 PM CDT SAT MAY 19 2018

NOTE:  "FAIR" INDICATES FEW OR NO CLOUDS BELOW 12,000 FEET WITH NO
SIGNIFICANT WEATHER AND/OR OBSTRUCTIONS TO VISIBILITY.

KSZ001>006-013>018-027>032-041>047-200400-
NORTHWEST KANSAS

CITY           SKY/WX    TMP DP  RH WIND       PRES   REMARKS
GOODLAND       CLOUDY    46  44  93 N17G24    30.17R
HAYS           CLOUDY    56  53  90 N16       30.06R
HILL CITY      CLOUDY    51  50  96 N10       30.10R
RUSSELL        CLOUDY    61  60  97 N14       30.02R
$$

KSZ061>065-074>080-084>089-200400-
SOUTHWEST KANSAS

CITY           SKY/WX    TMP DP  RH WIND       PRES   REMARKS
DODGE CITY     CLOUDY    57  48  72 NW22G31   30.07R
ELKHART        MOCLDY    61  49  63 N21G26    30.15R
GARDEN CITY    PTCLDY    54  48  80 N14       30.12R
GREAT BEND     PTCLDY    62  54  74 W16       30.03R
LIBERAL        CLOUDY    60  47  61 N22       30.09R
PRATT          PTCLDY    65  53  63 NW15      30.02R
$$

KSZ066>073-081>083-090>101-200400-
SOUTHEAST KANSAS

CITY           SKY/WX    TMP DP  RH WIND       PRES   REMARKS
CHANUTE        PTCLDY    69  67  93 E5        29.94R
COFFEYVILLE    CLOUDY    70  66  87 E9        29.90F
HUTCHINSON     CLOUDY    69  63  81 CALM      29.96R
MEDICINE LODGE   N/A     71  62  73 N8          N/A
NEWTON         CLOUDY    71  62  73 NE6       29.96R
PARSONS        CLOUDY    68  66  93 CALM      29.94R
WICHITA INTL   CLOUDY    76  66  71 N6        29.93R
WICHITA JABRA  CLOUDY    71  70  96 N6        29.93R
WICHITA MCCONL MOCLDY    74  67  76 CALM      29.93R
WINFIELD       MOCLDY    70  65  84 VRB3      29.93F
$$

KSZ007>012-019>026-033>040-048>060-102>105-200400-
NORTHEAST KANSAS

CITY           SKY/WX    TMP DP  RH WIND       PRES   REMARKS
CONCORDIA      MOCLDY    58  54  86 NE13      30.01R
EMPORIA        CLOUDY    69  67  93 CALM      29.94R
LAWRENCE       CLEAR     69  68  96 S5        29.93R
MANHATTAN      PTCLDY    69  61  75 NE7       29.95R
MARYSVILLE     CLOUDY    61  55  82 N8        30.00R
OLATHE IND     CLEAR     69  66  90 CALM      29.95R
OLATHE EXE     CLEAR     66  64  93 CALM      29.94R
SALINA         CLEAR     70  62  76 N14       29.97R
TOPEKA BILLARD CLEAR     71  64  78 N6        29.94R
TOPEKA FORBES  PTCLDY    69  67  93 MISG      29.95R
$$




USA.gov is the U.S. government's official web portal to all federal, state and local government web resources and services.